KB1PVH-13 Weather Reports


time (UTC)temp
C
wind
direction
speed
KPH
gust
KPH
rain 1hr
cm
rain 24hr
cm
rain mn
cm
humidity
%
barometer
mb
20260502214517 10 0.0 0.0 0.03 0.30 0.30 90 926.2
20260502213557 10 0.0 0.0 0.05 0.30 0.30 89 926.2
20260502212517 10 0.0 0.0 0.10 0.30 0.30 89 926.5
20260502211517 10 0.0 0.0 0.13 0.30 0.30 89 926.4
20260502210518 10 0.0 0.0 0.13 0.30 0.30 88 926.2
20260502205517 10 0.0 0.0 0.13 0.30 0.30 88 926.2
20260502204517 10 0.0 0.0 0.10 0.28 0.28 87 926.2
20260502203517 10 0.0 4.8 0.08 0.25 0.25 84 926.3
20260502202537 11 0.0 3.2 0.03 0.20 0.20 79 926.3
20260502201538 12 270 3.2 8.0 0.00 0.18 0.18 71 926.2
20260502200517 13 68 1.6 8.0 0.00 0.18 0.18 61 926.2
20260502195517 14 180 3.2 9.7 0.00 0.18 0.18 59 925.9
20260502194517 15 158 3.2 9.7 0.00 0.18 0.18 57 925.8
20260502193517 15 203 3.2 11.3 0.00 0.18 0.18 57 926.0
20260502192517 13 158 1.6 6.4 0.00 0.18 0.18 58 926.2
20260502191517 13 0.0 1.6 0.00 0.18 0.18 58 926.4
20260502190517 13 270 3.2 12.9 0.00 0.18 0.18 58 926.4
20260502185517 13 248 3.2 8.0 0.00 0.18 0.18 61 926.5
20260502184517 13 248 3.2 9.7 0.00 0.18 0.18 60 926.6
20260502183517 13 180 3.2 9.7 0.00 0.18 0.18 65 926.8
20260502182517 13 270 1.6 4.8 0.00 0.18 0.18 60 926.6
20260502181558 13 158 1.6 6.4 0.00 0.18 0.18 59 926.6
20260502180516 13 180 3.2 11.3 0.00 0.18 0.18 60 926.8
20260502163516 12 270 3.2 11.3 0.03 0.18 0.18 61 927.3
20260502162517 12 158 1.6 8.0 0.03 0.18 0.18 61 927.3
20260502161516 12 270 6.4 24.1 0.03 0.18 0.18 61 927.5
20260502160518 12 248 3.2 8.0 0.03 0.18 0.18 64 927.4
20260502151516 12 0.0 3.2 0.00 0.15 0.15 81 928.0
20260502150516 11 0.0 1.6 0.00 0.15 0.15 82 927.6
20260502130516 8 0.0 0.0 0.15 0.15 0.15 90 928.0
20260502123516 9 0.0 0.0 0.03 0.03 0.03 84 928.8
20260502122516 9 0.0 0.0 0.00 0.00 0.00 81 928.8
20260502121517 9 0.0 4.8 0.00 0.00 0.00 81 928.8
20260502120516 9 0.0 1.6 0.00 0.00 0.00 81 928.7
20260502115516 9 0.0 0.0 0.00 0.00 0.00 81 928.5
20260502114518 9 0.0 1.6 0.00 0.00 0.00 81 928.1
20260502113516 9 0.0 0.0 0.00 0.00 0.00 81 928.0
20260502112516 8 0.0 0.0 0.00 0.00 0.00 82 927.7
20260502111516 8 0.0 0.0 0.00 0.00 0.00 82 927.8
20260502110516 8 0.0 3.2 0.00 0.00 0.00 81 928.2
20260502105516 8 0.0 0.0 0.00 0.00 0.00 81 928.1
20260502104516 8 0.0 0.0 0.00 0.00 0.00 81 927.9
20260502103516 8 0.0 0.0 0.00 0.00 0.00 80 927.7
20260502102516 8 0.0 0.0 0.00 0.00 0.00 79 928.1
20260502101516 8 0.0 0.0 0.00 0.00 0.00 79 927.6
20260502100517 8 0.0 0.0 0.00 0.00 0.00 79 927.6
20260502090516 8 0.0 0.0 0.00 0.00 0.00 78 927.8
20260502071515 9 0.0 0.0 0.00 0.00 0.00 73 927.9
20260502070556 9 0.0 0.0 0.00 0.00 0.00 72 927.8
20260502065516 9 0.0 0.0 0.00 0.00 0.00 72 927.5
20260502064516 10 0.0 1.6 0.00 0.00 0.00 71 927.7
20260502063516 10 0.0 3.2 0.00 0.00 0.00 70 927.8
20260502062516 9 0.0 0.0 0.00 0.00 0.00 71 927.9
20260502061515 9 0.0 0.0 0.00 0.00 0.00 72 927.9
20260502060516 9 0.0 0.0 0.00 0.00 0.00 71 927.7
20260502055515 8 0.0 0.0 0.00 0.00 0.00 71 927.8
20260502054515 9 0.0 0.0 0.00 0.00 0.00 71 927.8
20260502053516 8 0.0 0.0 0.00 0.00 0.00 70 927.7
20260502052515 8 0.0 0.0 0.00 0.00 0.00 71 927.9
20260502051515 8 0.0 0.0 0.00 0.00 0.00 72 927.9
20260502050535 8 0.0 0.0 0.00 0.00 0.00 70 927.9
20260502045515 8 0.0 0.0 0.00 0.00 0.00 69 927.8
20260502044537 9 0.0 0.0 0.00 0.00 0.00 68 927.8
20260502043516 8 0.0 0.0 0.00 0.00 0.00 66 927.9
20260502042515 8 0.0 0.0 0.00 0.00 0.00 66 928.1
20260502041515 9 0.0 0.0 0.00 0.00 0.00 66 928.2
20260502040517 9 0.0 0.0 0.00 0.00 0.00 64 928.0
20260502035535 9 0.0 0.0 0.00 0.00 0.00 63 928.0
20260502034515 10 0.0 0.0 0.00 0.00 0.00 61 928.0
20260502033515 10 0.0 0.0 0.00 0.00 0.00 60 928.2
20260502032538 10 0.0 0.0 0.00 0.00 0.00 60 928.0
20260502031517 10 0.0 0.0 0.00 0.00 0.00 61 928.0
20260502030517 9 0.0 0.0 0.00 0.00 0.00 63 928.2
20260502025517 9 0.0 0.0 0.00 0.00 0.00 61 927.9
20260502024517 9 0.0 0.0 0.00 0.00 0.00 60 927.9
20260502023517 8 0.0 0.0 0.00 0.00 0.00 61 928.0
20260502022517 8 0.0 3.2 0.00 0.00 0.00 66 928.2
20260502021517 8 0.0 0.0 0.00 0.00 0.00 63 927.9
20260502020517 8 0.0 0.0 0.00 0.00 0.00 61 927.7
20260502015517 8 0.0 0.0 0.00 0.00 0.00 59 927.6
20260502014517 8 0.0 0.0 0.00 0.00 0.00 57 927.7
20260502013537 8 0.0 0.0 0.00 0.00 0.00 57 927.5
20260502012517 8 0.0 0.0 0.00 0.00 0.00 56 927.8
20260502011517 9 0.0 0.0 0.00 0.00 0.00 56 927.4
20260502010517 9 0.0 0.0 0.00 0.00 0.00 53 927.3
20260502005517 10 0.0 0.0 0.00 0.00 0.00 53 927.2
20260502004517 10 0.0 0.0 0.00 0.00 0.00 54 927.4
20260502003517 10 0.0 0.0 0.00 0.00 0.00 48 927.2
20260502002537 11 0.0 0.0 0.00 0.00 0.00 48 926.9
20260502001517 11 0.0 0.0 0.00 0.00 0.00 50 926.9
20260502000517 12 0.0 0.0 0.00 0.00 0.00 44 926.4
20260501235517 12 0.0 0.0 0.00 0.00 0.00 43 926.4
20260501234517 13 0.0 0.0 0.00 0.00 0.00 39 926.5
20260501233538 13 0.0 0.0 0.00 0.00 0.00 38 926.1
20260501232557 13 0.0 0.0 0.00 0.00 0.00 36 925.9
20260501231517 14 0.0 0.0 0.00 0.00 0.00 37 925.7
20260501230517 14 0.0 0.0 0.00 0.00 0.00 36 925.6
20260501225518 15 0.0 0.0 0.00 0.00 0.00 34 925.7
20260501224537 15 0.0 1.6 0.00 0.00 0.00 33 925.5
20260501223517 16 0.0 0.0 0.00 0.00 0.00 31 925.5
20260501222517 16 248 1.6 8.0 0.00 0.00 0.00 30 925.5
20260501221517 16 0.0 1.6 0.00 0.00 0.00 32 925.4
20260501220518 17 248 1.6 8.0 0.00 0.00 0.00 30 925.4
20260501215538 17 225 1.6 4.8 0.00 0.00 0.00 30 925.3